P/2020 R5 ( PanSTARRS )

Japanese version
Home page
Updated on September 20, 2020

---------------------------------------------------------------------

* Profile

Discovery Date September 14, 2020
Magnitude 20.5 mag
Discoverer Pan-STARRS2 1.8-m Ritchey-Chretien reflector (Haleakala, Hawaii)

* Orbital Elements

Epoch 2020 May 31.0 TT = JDT 2459000.5                                          
T 2020 May 28.08730 TT                                  Rudenko                 
q   3.4130453            (2000.0)            P               Q                  
n   0.08872285     Peri.   82.30150     +0.97688396     +0.07978946             
a   4.9786590      Node   272.96886     -0.15486967     +0.90364912             
e   0.3144649      Incl.   11.45440     +0.14735368     +0.42077536             
P  11.1                                                                         
From 57 observations 2019 May 30-2020 Sept. 18, mean residual 0".2.             

* Magnitudes Graph

        m1 = 13.0 + 5 log d + 10.0 log r

---------------------------------------------------------------------

The orbital elements are published on M.P.E.C. 2020-S99.
The magnitudes graphs are made with Comet for Windows.

---------------------------------------------------------------------

Copyright(C) Seiichi Yoshida (comet@aerith.net). All rights reserved.